Вернуться в каталог

FENGYUN 1C DEB

LostSSO
NORAD 31501·DEBRIS·🇨🇳 China

Запущен May 10, 1999 с Taiyuan Satellite Launch Center

Loading…

Ближайшие Пролёты (ближайшие 24 часа)

TLE

УстаревшееSource: Space-Track

Эпоха: Sep 22, 2022, 08:21 UTC

1 31501U 99025BWQ 22265.34828762  .00001236  00000-0  63951-3 0  9991
2 31501  98.8570 321.0056 0045312 137.4426 223.0274 14.16242034793363

Отслеживайте FENGYUN 1C DEB в реальном времени с AllMySat

Download on the App Store